Location: Franzen
(48.6167°N, 15.3833°E)
Time: 13:32:08
(UTC+00:00)

JB-3 - Pass Details

Date: 22 April 2021
Orbit: 525 x 589 km, 97.3° (Epoch: 16 May)

Event Time Altitude Azimuth Distance (km) Brightness Sun altitude
Rises 20:16:29 0° 15° (NNE) 2,805 8.4 -19.4°
Reaches altitude 10° 20:18:41 10° 18° (NNE) 1,892 7.4 -19.6°
Maximum altitude 20:22:46 65° 101° (E) 626 4.3 -20.0°
Enters shadow 20:23:18 57° 144° (SE) 667 4.3 -20.1°
